STARLINK-11235, 60726

Orbit data source: Space-Track

STARLINK-11235, 60726 is a payload satellite owned by SpaceX/Seattle (US) in LEO that was launched on Wed, 28 Aug 2024 UTC via an FALCON 9 launch vehicle from the Air Force Eastern Test Range (AFETR). Payload-class satellites include a variety of spacecraft equipped with specific instruments for various scientific and technological missions. These include communications satellites like Starlink; space stations such as the ISS; scientific satellites like the Hubble; Earth observation satellites from companies like Planet Labs, Umbra, and HawkEye 360; GPS; miniature CubeSats for education and research; and military/defense satellites.

Loading next visibility...
Identifier
60726, 2024-152G
Orbit
LEO
Country
Flag of USUS
Related business
Manufacturer
SpaceX/Seattle
Mission
Operational Commercial Communications
Bus & Motor
STARLINK V2MD, Unknown motor
Mass
960 kg wet, ~910 kg dry
Launch date (UTC)
2024-08-28 (1 year ago)
Launch vehicle
FALCON 9
Launch site
Air Force Eastern Test Range (AFETR)
Object type
Payload
Rocket body
Debris
Shape & HBR
Box + 2 Pan, 14.5 m
Radar Cross Section
36.964 m², Large (>1 m²)

Expand to show TLE details & history
Last TLE update: 2 days ago

TLE from 2 days ago
0 STARLINK-11235
1 60726U 24152G   25260.37069146 -.00002356  00000-0 -14578-4 0  9993
2 60726  53.1550 250.6338 0002182  95.3149 264.8118 15.69708029 61748
Epoch: 2025-09-17T08:53Z
TLE epoch observation values (Epoch: 2025-09-17T08:53:47.742Z)
Latitude
0.00001°
Longitude
120.63727°
Altitude
360.78 km
Speed
7.694 km/s
True Right ascension
16h 42m 32s
True Declination
0° 00' 00"
Sunlit
Object was in daylight at epoch
Visualization orbit readout
Latitude
Unknown
Longitude
Unknown
Altitude
Unknown
Speed
Unknown
Apparent Right ascension
Unknown
Apparent Declination
Unknown
Sunlit
N/A
Visualization observer readout
Local Sidereal Time
13:53:15
Azimuth
Unknown
Elevation
Unknown
Doppler factor
Unknown
Orbital elements
Apogee altitude
361.464 km
Perigee altitude
358.524 km
Semi-major axis
6,738.131 km
Eccentricity
0.00022
Inclination
53.155°
RAAN
250.6338°
Arg. of periapsis
95.3149°
True anomaly
264.7869°
Mean anomaly
264.8118°
Eccentric anomaly
264.79935°
Mean motion
3.92405 °/min
Orbital period
91.74 mins
BSTAR
-0.000014578
Loading maneuver chart data...
Computing Atmospheric mass density...
Loading historical data...
Loading historical data...
Loading historical data...
Loading historical data...
Loading historical data...
Loading historical data...
Loading historical data...

Documentation

Showing up to 5 results
|